Regional Weather Roundup
Issued by NWS

Home | Current Version | Previous Version | Graphics & Text | Print | Product List | Glossary On
Versions: 1 2 3 4 5 6 7 8 9 10 11 12 13 14 15 16 17 18 19 20 21 22 23 24 25 26 27 28 29 30 31 32 33 34 35 36 37 38
000
ASUS45 KBOU 221307
RWRCO

WEATHER ROUNDUP FOR COLORADO
NATIONAL WEATHER SERVICE DENVER/BOULDER CO
700 AM MDT WED OCT 22 2014

NOTE: "FAIR" INDICATES FEW OR NO CLOUDS BELOW 12000 FEET WITH NO
SIGNIFICANT WEATHER AND/OR OBSTRUCTIONS TO VISIBILITY.

COZ001>005-013-030-031-221400-
...NORTHWEST COLORADO...

CITY           SKY/WX    TMP DP  RH WIND       PRES   REMARKS
CRAIG          CLOUDY    37  34  89 CALM      30.16R
HAYDEN         MOCLDY    39  36  87 SE7       30.16R
MEEKER         CLOUDY    43  39  86 MISG      30.16R
MOUNT WERNER   NOT AVBL
STEAMBOAT SPGS CLOUDY    38  37  93 CALM      30.17R
WALDEN         PTCLDY    34  32  93 SE3       30.18R
$$

COZ006>008-011-221400-
...WEST CENTRAL VALLEYS...

CITY           SKY/WX    TMP DP  RH WIND       PRES   REMARKS
GRAND JUNCTION CLEAR     42  39  89 CALM      30.10R
MONTROSE       PTCLDY    46  40  79 S8        30.15S
EAGLE          MOCLDY    41  39  93 CALM      30.21S
RIFLE          PTCLDY    42  40  92 CALM      30.15R
DELTA          PTCLDY    49  46  86 SE5       30.13S
NUCLA          PTCLDY    45  37  76 E10       30.17S
$$

COZ017>023-064>068-221400-
...SOUTHWEST COLORADO...

CITY           SKY/WX    TMP DP  RH WIND       PRES   REMARKS
DURANGO        PTCLDY    38  37  97 N3        30.19R
CORTEZ         PTCLDY    38  36  92 E3        30.15S
PAGOSA SPRINGS CLOUDY    40  40 100 CALM      30.24R
TELLURIDE      NOT AVBL
WOLF CREEK PAS PTCLDY    30  30 100 SW14        N/A  WCI  20
$$

COZ009-010-012-014-032>034-037-058>063-221400-
...CENTRAL COLORADO...

CITY           SKY/WX    TMP DP  RH WIND       PRES   REMARKS
ASPEN          PTCLDY    35  34  96 CALM      30.21S
BUENA VISTA    DRIZZLE   39  35  84 W3        30.22R
COPPER MTN     PTCLDY    34  30  86 S7        30.33S WCI  28
BERTHOUD PASS  CLOUDY    27  23  86 MISG      30.31S
COTTONWOOD PAS MOCLDY    39  36  87 NW3       30.28R
GUNNISON       CLOUDY    39  34  81 SE6       30.25R
KREMMLING      CLOUDY    37  34  87 CALM        N/A
LEADVILLE      LGT SNOW  31  31 100 NE3       30.26F FOG
MONARCH PASS   CLOUDY    30  30 100 MISG      30.44R VSB<1/4
SALIDA         CLOUDY    42  39  89 CALM      30.29S
SUNLIGHT       PTCLDY    34  34 100 CALM      30.30S FOG
WILKERSON PASS NOT AVBL
$$

COZ069>075-221400-
...SAN LUIS VALLEY/SANGRE DE CRISTO MOUNTAINS...

CITY           SKY/WX    TMP DP  RH WIND       PRES   REMARKS
ALAMOSA        FOG       29  27  92 E6        30.21R VSB 3/4 WCI  23
LA VETA PASS   PTCLDY    34  32  93 S8        30.29S WCI  27
SAGUACHE       PTCLDY    36  32  87 NW10      30.24R
$$

COZ035-036-038>040-221400-
...NORTHERN COLORADO FRONT RANGE...

CITY           SKY/WX    TMP DP  RH WIND       PRES   REMARKS
DENVER INTL AP MOCLDY    45  40  82 S10       30.05R
DMNS CITY PARK   N/A     49  41  74 S5G10     30.06S
AURORA         PTCLDY    44  42  90 S8        30.08R
FRONT RANGE AP PTCLDY    46  43  87 S8        30.07
ERIE MUNI ARPT MOCLDY    53  41  64 W3        30.04S
BOULDER MUN AP MOCLDY    55  34  44 W10       30.04R
CENTENNIAL     PTCLDY    44  40  85 S8        30.08S
BROOMFIELD     MOCLDY    54  37  54 SW12      30.07R
FORT COLLINS   CLOUDY    48  41  76 S6        30.06R
LONGMONT       CLOUDY    47  43  85 CALM      30.06R
$$

COZ041-046-047-076>085-087-088-221400-
...PIKES PEAK/PALMER DIVIDE AND SOUTHERN FOOTHILLS...

CITY           SKY/WX    TMP DP  RH WIND       PRES   REMARKS
COLO. SPRINGS  PTCLDY    50  39  66 NW7       30.11R
A. F. ACADEMY  PTCLDY    44  38  77 N9        30.13R
ELLICOTT       CLEAR     44  38  79 NE6       30.10R
FALCON         CLEAR     46  39  76 NW9       30.14R
FORT CARSON    CLEAR     46  37  71 NW10      30.09R
LIMON          PTCLDY    44  40  85 W9        30.07R
MONUMENT HILL  CLEAR     37  36  93 SW7       30.13S
TRINIDAD       MOCLDY    50  40  68 W10       30.10R
$$

COZ042>045-048>051-090-091-221400-
...NORTHEAST COLORADO...

CITY           SKY/WX    TMP DP  RH WIND       PRES   REMARKS
GREELEY ARPT   MOCLDY    46  37  71 CALM      30.06R
AKRON          CLOUDY    51  45  79 NW9       30.02R
BURLINGTON     CLOUDY    54  44  69 NW9       30.00R
WRAY           CLOUDY    56  47  71 NW5       29.99R
STERLING       CLOUDY    54  50  87 CALM      29.99F
HOLYOKE        CLOUDY    55  46  71 N5        29.99R
FORT MORGAN    CLOUDY    53  41  65 N7        30.04R
$$

COZ086-089-092>099-221400-
...SOUTHEAST COLORADO...

CITY           SKY/WX    TMP DP  RH WIND       PRES   REMARKS
PUEBLO         PTCLDY    46  39  76 N9        30.06R
LA JUNTA       MOCLDY    50  44  80 W7        30.02R
LAMAR          CLOUDY    52  48  86 W7        29.97R
SPRINGFIELD      N/A     55  52  89 S12       30.01R
$$



USA.gov is the U.S. government's official web portal to all federal, state and local government web resources and services.